Total_Precipitation_Accumulation
0.36 0.33 0.37 0.44 0.46 0.55 0.70 0.87 1.11 1.00 0.78 0.66 0.64 0.62 0.64 0.70 0.63 0.58 0.57 0.59 0.60 0.59 0.61 0.63 0.68 0.78 0.86 0.96 1.16 1.29 1.39 1.39 1.31 1.27 1.22 1.19 1.13 1.05 1.04 0.96 0.94 0.99 1.15 1.29
0.21 0.21 0.27 0.38 0.49 0.63 0.69 0.75 0.77 0.68 0.64 0.50 0.47 0.43 0.44 0.50 0.51 0.51 0.46 0.42 0.42 0.47 0.49 0.54 0.59 0.67 0.71 0.81 0.98 1.10 1.17 1.21 1.29 1.28 1.13 1.05 1.00 0.99 0.95 0.90 0.88 0.89 0.97 1.10
0.23 0.19 0.30 0.52 0.60 0.67 0.66 0.62 0.54 0.51 0.46 0.34 0.31 0.28 0.29 0.34 0.39 0.45 0.44 0.37 0.35 0.36 0.40 0.48 0.57 0.60 0.65 0.77 0.90 0.96 1.03 1.06 1.12 1.12 0.99 0.94 0.86 0.82 0.83 0.82 0.85 0.85 0.91 1.05
0.33 0.28 0.53 0.71 0.57 0.52 0.58 0.48 0.34 0.31 0.30 0.27 0.23 0.20 0.19 0.20 0.23 0.26 0.28 0.29 0.34 0.31 0.32 0.36 0.44 0.55 0.69 0.74 0.76 0.78 0.86 0.89 0.90 0.91 0.88 0.84 0.74 0.72 0.75 0.80 0.85 0.86 0.90 0.99
0.49 0.47 0.58 0.64 0.44 0.42 0.51 0.49 0.28 0.22 0.21 0.18 0.17 0.16 0.14 0.13 0.15 0.16 0.17 0.21 0.25 0.25 0.25 0.26 0.29 0.33 0.40 0.46 0.51 0.54 0.65 0.73 0.78 0.80 0.79 0.75 0.71 0.79 0.83 0.82 0.84 0.85 0.84 0.86
0.58 0.67 0.74 0.51 0.23 0.22 0.38 0.58 0.27 0.17 0.16 0.14 0.14 0.17 0.15 0.14 0.16 0.14 0.12 0.13 0.17 0.20 0.19 0.19 0.20 0.21 0.25 0.32 0.37 0.41 0.48 0.56 0.64 0.72 0.74 0.79 0.92 1.01 1.04 0.99 0.90 0.83 0.80 0.79
0.63 0.84 0.78 0.46 0.22 0.24 0.46 0.61 0.32 0.17 0.15 0.17 0.17 0.16 0.14 0.15 0.16 0.15 0.12 0.12 0.14 0.16 0.16 0.17 0.18 0.18 0.21 0.27 0.28 0.32 0.32 0.40 0.52 0.68 0.77 0.89 1.04 1.08 1.05 1.00 0.89 0.79 0.75 0.74
0.78 1.00 1.02 0.52 0.31 0.38 0.38 0.26 0.21 0.15 0.14 0.14 0.15 0.15 0.16 0.16 0.15 0.15 0.16 0.14 0.14 0.13 0.13 0.16 0.18 0.18 0.20 0.28 0.30 0.36 0.37 0.39 0.45 0.58 0.72 0.90 1.04 1.04 1.05 1.04 0.95 0.84 0.81 0.79
0.89 0.88 0.67 0.41 0.31 0.25 0.21 0.22 0.15 0.13 0.15 0.15 0.15 0.15 0.15 0.17 0.16 0.15 0.16 0.17 0.16 0.14 0.13 0.14 0.16 0.20 0.22 0.26 0.30 0.33 0.37 0.34 0.36 0.44 0.59 0.76 0.86 0.89 0.94 0.98 0.94 0.89 0.84 0.81
0.48 0.34 0.26 0.22 0.20 0.16 0.12 0.13 0.11 0.10 0.12 0.17 0.21 0.20 0.16 0.16 0.18 0.18 0.17 0.17 0.16 0.15 0.15 0.15 0.17 0.20 0.24 0.29 0.30 0.30 0.32 0.33 0.32 0.33 0.37 0.47 0.55 0.62 0.71 0.77 0.79 0.80 0.81 0.81
0.35 0.22 0.16 0.16 0.17 0.14 0.11 0.11 0.10 0.10 0.10 0.12 0.17 0.18 0.14 0.16 0.16 0.17 0.18 0.19 0.17 0.18 0.20 0.19 0.19 0.20 0.24 0.28 0.31 0.31 0.32 0.34 0.34 0.35 0.38 0.40 0.43 0.47 0.53 0.57 0.68 0.76 0.76 0.79
0.32 0.22 0.17 0.14 0.15 0.15 0.13 0.11 0.11 0.11 0.12 0.15 0.17 0.18 0.18 0.16 0.16 0.15 0.17 0.19 0.21 0.22 0.24 0.22 0.21 0.22 0.22 0.23 0.26 0.29 0.30 0.29 0.28 0.30 0.34 0.35 0.39 0.43 0.48 0.48 0.56 0.60 0.62 0.63
0.16 0.16 0.15 0.13 0.14 0.14 0.12 0.10 0.10 0.10 0.10 0.12 0.14 0.17 0.16 0.16 0.16 0.19 0.22 0.21 0.22 0.23 0.23 0.23 0.22 0.22 0.25 0.25 0.26 0.29 0.28 0.27 0.28 0.27 0.31 0.36 0.37 0.40 0.45 0.45 0.42 0.41 0.45 0.49
0.09 0.12 0.16 0.15 0.14 0.12 0.11 0.09 0.09 0.09 0.09 0.10 0.12 0.16 0.16 0.15 0.16 0.17 0.18 0.20 0.21 0.22 0.22 0.22 0.22 0.22 0.23 0.24 0.28 0.30 0.31 0.34 0.35 0.35 0.37 0.35 0.38 0.42 0.44 0.45 0.41 0.34 0.35 0.39
0.10 0.11 0.13 0.14 0.12 0.11 0.10 0.09 0.09 0.09 0.09 0.12 0.14 0.14 0.16 0.18 0.19 0.21 0.21 0.19 0.17 0.17 0.18 0.21 0.23 0.22 0.22 0.24 0.28 0.31 0.33 0.33 0.36 0.39 0.39 0.38 0.40 0.45 0.44 0.42 0.39 0.34 0.33 0.34
0.11 0.11 0.13 0.13 0.12 0.10 0.09 0.09 0.09 0.10 0.11 0.13 0.15 0.13 0.13 0.15 0.19 0.23 0.26 0.24 0.20 0.18 0.20 0.24 0.24 0.22 0.24 0.27 0.30 0.31 0.32 0.36 0.37 0.38 0.40 0.42 0.41 0.40 0.40 0.40 0.39 0.36 0.34 0.35
0.16 0.15 0.14 0.13 0.11 0.08 0.09 0.10 0.11 0.13 0.12 0.14 0.17 0.15 0.12 0.11 0.13 0.18 0.21 0.24 0.24 0.24 0.23 0.24 0.26 0.27 0.28 0.29 0.32 0.34 0.34 0.35 0.37 0.36 0.34 0.37 0.38 0.37 0.38 0.37 0.35 0.32 0.32 0.35
0.16 0.15 0.12 0.11 0.10 0.09 0.10 0.12 0.13 0.13 0.12 0.15 0.18 0.17 0.15 0.15 0.15 0.17 0.21 0.25 0.25 0.24 0.22 0.22 0.27 0.30 0.31 0.32 0.33 0.36 0.37 0.34 0.30 0.30 0.32 0.33 0.36 0.37 0.38 0.41 0.40 0.37 0.35 0.34
0.15 0.13 0.11 0.11 0.11 0.12 0.13 0.14 0.13 0.13 0.13 0.14 0.17 0.19 0.20 0.20 0.20 0.19 0.21 0.28 0.29 0.26 0.21 0.20 0.25 0.25 0.27 0.30 0.33 0.32 0.34 0.34 0.34 0.33 0.33 0.35 0.38 0.37 0.38 0.39 0.42 0.42 0.42 0.40
0.19 0.17 0.15 0.14 0.15 0.16 0.16 0.15 0.14 0.14 0.13 0.14 0.17 0.19 0.21 0.22 0.21 0.20 0.24 0.30 0.32 0.29 0.23 0.22 0.22 0.21 0.25 0.28 0.35 0.32 0.31 0.29 0.32 0.36 0.38 0.42 0.42 0.42 0.42 0.41 0.44 0.44 0.43 0.43
0.26 0.25 0.21 0.20 0.19 0.17 0.16 0.17 0.16 0.16 0.16 0.17 0.18 0.19 0.21 0.21 0.21 0.22 0.26 0.31 0.28 0.23 0.23 0.27 0.24 0.22 0.26 0.33 0.39 0.35 0.33 0.30 0.32 0.35 0.36 0.38 0.42 0.46 0.53 0.52 0.49 0.46 0.44 0.43
0.27 0.27 0.24 0.21 0.20 0.19 0.18 0.17 0.17 0.17 0.17 0.18 0.19 0.19 0.21 0.24 0.24 0.23 0.23 0.27 0.27 0.29 0.28 0.26 0.25 0.29 0.35 0.37 0.34 0.35 0.37 0.35 0.34 0.36 0.37 0.38 0.41 0.46 0.52 0.56 0.55 0.52 0.50 0.50
0.23 0.23 0.23 0.23 0.22 0.21 0.19 0.19 0.20 0.20 0.22 0.22 0.23 0.25 0.31 0.35 0.33 0.33 0.32 0.28 0.28 0.32 0.29 0.28 0.32 0.40 0.42 0.35 0.33 0.35 0.38 0.42 0.43 0.43 0.45 0.47 0.47 0.49 0.53 0.55 0.60 0.58 0.56 0.57
0.24 0.22 0.22 0.23 0.22 0.22 0.23 0.24 0.23 0.24 0.26 0.29 0.29 0.33 0.39 0.43 0.42 0.39 0.38 0.39 0.38 0.36 0.31 0.34 0.38 0.41 0.43 0.37 0.39 0.41 0.43 0.48 0.52 0.53 0.56 0.57 0.55 0.57 0.60 0.61 0.63 0.64 0.64 0.64
0.32 0.29 0.29 0.32 0.33 0.32 0.32 0.31 0.29 0.27 0.28 0.32 0.33 0.33 0.36 0.40 0.41 0.43 0.44 0.43 0.43 0.42 0.40 0.43 0.46 0.46 0.41 0.40 0.44 0.46 0.49 0.53 0.58 0.60 0.59 0.60 0.60 0.60 0.61 0.64 0.65 0.66 0.66 0.67
0.29 0.28 0.29 0.32 0.35 0.35 0.35 0.35 0.36 0.36 0.36 0.38 0.38 0.37 0.39 0.38 0.38 0.40 0.43 0.45 0.46 0.48 0.45 0.42 0.40 0.41 0.42 0.45 0.48 0.50 0.50 0.52 0.53 0.53 0.54 0.59 0.62 0.62 0.64 0.67 0.67 0.69 0.72 0.72
0.27 0.25 0.25 0.29 0.33 0.33 0.33 0.37 0.42 0.45 0.47 0.49 0.52 0.50 0.46 0.44 0.44 0.45 0.45 0.46 0.50 0.51 0.50 0.50 0.48 0.47 0.49 0.51 0.53 0.54 0.55 0.55 0.52 0.52 0.55 0.58 0.63 0.67 0.70 0.71 0.73 0.75 0.78 0.79